星链-1074 (STARLINK-1074 )

导读 | 豆包AI

STARLINK-1074是美国太空探索技术公司(SpaceX)星链(Starlink)项目的一颗互联网通信卫星,于美国东部时间2020年1月6日晚(北京时间2020年1月7日早),由猎鹰9号火箭从美国佛罗里达州卡纳维拉尔角空军站发射升空,运行在近地轨道,为全球范围提供高速互联网接入服务。

基本信息
目录编号:
44957
目录名称:
STARLINK-1074
国际标识:
2020-001AV
轨道中心:
EARTH
卫星名称:
星链-1074
卫星全名:
星链-1074 (STARLINK-1074 )
卫星状态:
已陨落 最后检测时间 2023-09-29
发射日期:
2020-01-07 UTC
国别 :
美国 (US)
星等 :
--
轨道信息
数据来源 国际轨道数据
星历时间: 2023-09-30T06:14:54+0800
轨道信息已过期896天
半长轴: 6579.622km
偏心率: 0.0002974
轨道倾角: 53.035°
近地点辐角 31.492°
升交点赤经 309.154°
平近点角 98.594°
近地点: 199.53km
远地点: 203.444km
周期: 88.524分钟
每日圈数: 16.266774
详细信息
固有亮度:
5
最大亮度:
2.5
卫星平台:
Starlink V1.0
覆盖范围:
全球
运营商:
太空探索技术公司
运营商所在国:
美国
制造商(研发单位):
太空探索技术公司
制造商所在国:
美国
使用方式:
暂无
卫星简介
星链(Starlink)计划是由太空探索技术公司(SpaceX)提出的一个巨型低轨卫星互联网星座项目,计划在2019年至2024年间在太空搭建由约1.2万颗卫星组成的“星链”网络,其中1584颗将部署在地球上空550千米处的近地轨道,并从2020年开始工作。该卫星已陨落。